Other Surface Observations
Issued by NWS

Home | Current Version | Previous Version | Text Only | Print | Product List | Glossary On
Versions: 1 2 3 4 5 6 7 8 9 10 11 12 13 14 15 16 17 18 19 20 21 22 23 24 25 26 27 28 29 30 31 32 33 34 35 36 37 38 39 40 41 42 43 44 45 46 47 48 49 50
000
SXUS52 KTAE 050618
OSOTAE
OSOTAE
North Florida/South Alabama/Southwest Georgia Weather Roundup
National Weather Service Tallahassee Florida
100 AM EST THU MAR 05 2015

Note: "fair" indicates few or no clouds below 12,000 feet with no
significant weather and/or obstructions to visibility.

!FLZ017-115-028-034-025-050700
...North Florida...

CITY           SKY/WX    TMP DP  RH WIND       PRES   REMARKS
TALLAHASSEE    CLOUDY    67  66  97 S3        30.03F FOG
APALACHICOLA   CLOUDY    69  66  90 S5        30.03F FOG
PERRY          NOT AVBL
CROSS CITY       N/A     60  59  96 CALM      30.05F
JACKSONVILLE   PTCLDY    62  62 100 S6        30.05F
$$

!FLZ112-006-005-002-011-050700
...Florida Panhandle...

CITY           SKY/WX    TMP DP  RH WIND       PRES   REMARKS
MARIANNA       MOCLDY    70  69  97 S9        30.00F
BONIFAY        CLOUDY    70  68  93 S5        30.00F
PANAMA CITY NW CLOUDY    66  66 100 SE5       29.99F
TYNDALL AFB    CLOUDY    68  67  98 S14       30.01S
TYND DRONE APT CLOUDY    68  68 100 S13       30.01F
DE FUNIAK SPR  CLOUDY    69  68  98 S8        29.99F
EGLIN AFB      FOG       66  66  98 S9        29.98F VSB 1/4
DESTIN         FOG       66  66 100 S12G22    29.98F VSB 1/2
HURLBURT       NOT AVBL
CRESTVIEW      CLOUDY    70  69  97 S10       29.99F
PENSACOLA      CLOUDY    69  68  96 S13       29.96F FOG
$$

!ALZ063-066-050700
...South Alabama...

CITY           SKY/WX    TMP DP  RH WIND       PRES   REMARKS
DOTHAN         CLOUDY    70  67  90 S13       30.00F
OZARK CAIRNS   CLOUDY    70  66  85 S16       29.97
FT RUCKER HELI CLOUDY    71  67  87 SW12      29.96F
RUCKER HELI 3  CLOUDY    70  67  90 S13G22    29.98F
RUCKER HELI 2  CLOUDY    70  67  90 S9        29.97F
FLORALA APT    CLOUDY    70  67  90 S12G24    29.98F
ANDALUSIA      CLOUDY    74  68  81 SW8       29.96F
TROY           CLOUDY    70  67  90 S9        29.95F
EUFALA         CLOUDY    72  66  81 S6        29.95F
MOBILE         CLOUDY    70  69  97 S9        29.95F
$$

!GAZ120>161-050700
...Southwest and South Central Georgia...

CITY           SKY/WX    TMP DP  RH WIND       PRES   REMARKS
THOMASVILLE    CLOUDY    68 N/A N/A SW6       30.05S FOG
BAINBRIDGE     MOCLDY    73  70  88 S7        30.02F
MOODY AFB      CLOUDY    70  66  86 SW10      30.03F
VALDOSTA       CLOUDY    70  67  90 VRB6      30.04F
MOULTRIE       CLOUDY    68  68 100 SW5       30.05S FOG
BLAKELY        MOCLDY    70  70 100 S7        30.00S
ALBANY         MOCLDY    68  66  93 S14       30.02S
TIFTON         CLOUDY    67  66  97 SW8       30.03S
FITZGERALD     CLOUDY    70  67  91 SW13G18   30.04F
CORDELE        CLOUDY    70  66  86 S14G20    30.01S
AMERICUS       CLOUDY    68  66  94 SW7       30.00F
HOMERVILLE     CLOUDY    72  68  88 SW7       30.04F
$$

!GMZ750-755-770-775-050700
...Coastal and Buoy Obs...

STATION/POSITION TIME  TEMP    WIND        PRES    VSBY  WAVE
                       AIR SEA DIR/SP/G                  HT/PER
                 (UTC) (F)     (DEG/KT/KT) (MB)    (MI)  (FT/S)
KEATON BEACH     0600   66     200/  3/  4 1017.7F
CEDAR KEY        0555   66     190/  9/ 12 1018.3R
C TOWER          0600   68     190/ 14/ 15 1016.8F
APALACHICOLA BUO 0600   70 68  190/ 12/ 14 1016.9F         3/ 7
PANAMA CITY BUOY 0527   71 70  170/  8/ 10 1016.7S         3/ 6
MOBILE BUOY      0452   73 72  180/  8/ 10 1015.1          4/ 6
ORANGE BCH AL BU 0600   69 66  170/ 16/ 17 1013.6F         4/ 7
$$



USA.gov is the U.S. government's official web portal to all federal, state and local government web resources and services.